Погода в Сызрани

Погода в Сызрани : погода сейчас, прогноз погоды и архив. Всё, что Вы хотите узнать о погоде в Сызрани!

Хотите узнать прогноз погоды в Сызрани? Тогда Вам сюда: Погода в Сызрани

Поиск расширенной информации на нашем сайте:

Полезная информация: Актуальная информация горящие туры в Турцию, цены на путевки в Турцию здесь. - Poisk-toura.com

Другие новости

Новости СМИ2

Главная страница сайта

Новости сайта

02.10.2013

Напоминаем, что на нашем новом сайте вы можете получить высокодетализированные прогнозы погоды по пунктам России, СНГ и мира (включающие важные для авиации метеовеличины, такие как направление и скорость ветра, видимость, явления погоды, количество и форма облачности, нижняя и верхняя граница облачности), а также ознакомиться с разнообразными материалами по авиационной метеорологии и подборкой полезных ссылок на эту тему.

Сайт Метеоцентр.Азия посвящён разработке технологий оптимизации авиаметеорологического обслуживания, включая проектирование и перспективное создание нескольких автоматизированных авиаметеорологических систем:
- система выпуска высокодетальных прогностических карт явлений погоды для нижнего воздушного пространства по России и ближнему зарубежью;
- система верификации прогнозов TAF (выпускаемых синоптиками официальных АМСГ РФ и ближнего зарубежья) и AUTOTAF (выпускаемых сайтом Метеоцентр.Азия) - выявление ошибок, онлайн-сопоставление с фактической погодой METAR, автоматическое внесение коррективов в прогнозы при резком отклонении фактической погоды от прогноза, подсчёт оправдываемости прогнозов по элементам и в целом;
- система обработки, анализа и отображения авиаметеорологической информации для применения провайдерами метеорологической информации.

Рекомендуем: Оплата тура онлайн купить тур онлайн. - Guru-tour.ru

Погода в Сызрани - сегодня

Время (UTC), дата Ветер
(°,м/с) 
Видим.   Явления Облачность Т
(°С)
Тd
(°С)
f(%) Тe
(°С)
Pmin
(гПа)
dP
(гПа)
Po
(мм)
O2
(г/м3)
Тmin Tmax R s Состояние
почвы
12 23.02.17 190 (Ю) 4{10}  20000 м    10/10 600 м кучево-дожд. 
[Cb calv]
+2 -2.2 74 1001  -0.9  741  297           
15 23.02.17 180 (Ю) 18000 м    9/9 600 м кучево-дожд. 
[Cb calv]
+1.4 -2.6 75 -1  1000.6  -0.4  741  297    +3.4  0.0     
18 23.02.17 160 (Ю) 4{10}  19000 м    10/10 1000 м кучево-дожд. 
[Cb calv]
+0.2 -2 85 -2  999.2  -1.4  740  298           
21 23.02.17 150 (ЮВ) 4-10{10}  17000 м    10/10 300 м 
[St]
-0.3 -1.8 90 -3  996.9  -2.3  738  298           
00 24.02.17 150 (ЮВ) 5{11}  15000 м  слаб. снег  9/9 300 м 
-0.1 -1 94 -3  994.6  -2.2  736  297           
03 24.02.17 160 (Ю) 4{11}  19000 м  {снег}  10/10 300 м 
[St]
+0 -0.9 94 -2  994.2  -0.4  736  297  -0.3    25  равномерный
мокрый или
старый снег
100% 
06 24.02.17 150 (ЮВ) 20000 м  {снег}  10/10 600 м кучево-дожд. 
[Cb calv]
+0.6 -0.3 94 996.3  738  297           
09 24.02.17 250 (З) 20000 м    9/9 600 м кучево-дожд. 
[Cb calv]
+2.9 -1.2 74 +2  998.2  739  295           
12 24.02.17 280 (З) 20000 м    10/10 600 м 
[Sc]
+2.2 -1.8 75 +1  1000.9  2.6  741  296           
15 24.02.17 220 (ЮЗ) 20000 м    3/0 верхняя 
[Ci fib]
+0.4 -3.7 74 +1  1003.1  743  299    +3.3       
18 24.02.17 180 (Ю) 21000 м    8/8 600 м 
[Sc]
+1.1 -1.5 83 1003  743  298           
21 24.02.17 150 (ЮВ) 19000 м    10/10 600 м 
[Sc]
+0.5 -1.1 89 -2  1000.8  -2.2  741  298           
00 25.02.17 200 (Ю) 17000 м    10/10 600 м 
[Sc]
+1.8 -0.2 87 998.7  -2  740  296           
03 25.02.17 230 (ЮЗ) 4{11}  18000 м    10/10 600 м 
[Sc]
+2.2 +0.7 90 998.2  -0.5  739  295  -0.2      22  равномерный
мокрый или
старый снег
100% 
06 25.02.17 230 (ЮЗ) 20000 м    10/10 600 м 
[Sc]
+2.9 +0.7 85 +1  999.5  1.4  740  295           
09 25.02.17 200 (Ю) 20000 м    10/3 600 м средняя, верхняя 
[Sc|Ac trans|Ci fib]
+4.4 +0.3 75 +3  999.6  0.1  740  293           
12 25.02.17 190 (Ю) 20000 м    10/10 600 м 
[Sc]
+3.6 +0.2 78 +2  999.5  0.1  740  294           
15 25.02.17 200 (Ю) 15000 м    10/10 600 м 
[Sc]
+2.6 +0.1 84 +1  998.8  -0.8  740  295    +4.4       
18 25.02.17 210 (ЮЗ) 15000 м  слаб. дождь  10/10 600 м 
[Sc]
+1.5 -0.4 87 998.2  -0.7  739  296           
21 25.02.17 270 (З) 18000 м  в посл. час дождь  10/10 600 м 
[Sc]
+0.6 -0.9 90 -1  998.4  0.2  739  297           
00 26.02.17 270 (З) 2{10}  21000 м  {дождь}  3/0 верхняя 
[Ci fib]
-1.7 -5.9 73 -3  1000.9  2.3  741  301           
03 26.02.17 280 (З) 20000 м    3/0 средняя 
[Ac cast]
-4.1 -7.3 78 -5  1003.6  2.5  743  305  -4.1    19  равномерный
мокрый или
старый снег
100% 
06 26.02.17 260 (З) 20000 м    10/10 600 м 
[Sc]
-3.2 -7.5 72 -6  1005.7  2.1  744  304  -4.9         
09 26.02.17 240 (ЮЗ) 20000 м    4/3 600 м средняя, верхняя 
[Sc|Ac trans|Cc]
-0.5 -6.1 66 -3  1006.6  745  301           
12 26.02.17 250 (З) 20000 м    10/10 600 м 
[Sc]
-0.1 -7.3 58 -3  1007.4  0.8  746  301           
Время (UTC), дата Ветер
(°,м/с) 
Видим.   Явления Облачность Т
(°С)
Тd
(°С)
f(%) Тe
(°С)
Pmin
(гПа)
dP
(гПа)
Po
(мм)
O2
(г/м3)
Тmin Tmax R s Состояние
почвы

Для получения пояснительной информации подведите курсор к названию столбца.

ПОГОДА в Сызрани - архив

Всё, что Вы хотите узнать о погоде в Сызрани - удобно и подробно!

Выберите нужную дату (начиная с 1 января 2015* года) и нажмите кнопку "Найти".
Будут отображены архивные сводки погоды по пункту Сызрань, начиная с указанной даты.


Отображать данные в формате CSV (для использования в таблицах Excel)


Внимание! Наш архив погоды предназначен исключительно для личного некоммерческого использования в познавательных целях. Если Вам необходимы официальные справки о состоянии погоды (для производственных, юридических, коммерческих и т.п. целей), обращайтесь в органы Росгидромета.

*Примечание: данная дата относится к архиву по метеостанциям СССР (Россия, СНГ, Балтия).
Архив по метеостанциям Зарубежной Европы и Азии (кроме Китая) хранится 10 дней, по другим регионам земного шара (Китай, Африка, Америка, Австралия, Океания) - 1 день.

Сызрань - район местоположения метеостанции


Название, широта, долгота, высота метеостанции:
Сызрань 53.2°ш. 48.4°д. 103 м над ур. моря [Российская Федерация]

Дополнительная информация

В oтличие oт бoльшинства пoгoдных сайтoв мы публикуем пoдрoбную метеoинфoрмацию в детальнoм прoфессиoнальнoм фoрмате.

Характеристики температуры и влажнoсти вoздуха измеряются на высoте 2 м в тени вдали oт зданий и деревьев.
Скoрoсть ветра измеряется на высoте 10 м (на урoвне рoста челoвека скoрoсть ветра ниже в 1.5-2 раза). Если метеoстанция нахoдится в гoрoде или в лесу, тo скoрoсть ветра занижена на 2-4 м/с пo сравнению с oткрытым местoм. Скoрoсть ветра над акватoриями крупных рек и oзёр, а также на вершинах хoлмoв на 2-5 м/с выше, чем в oбычных услoвиях.
Атмoсфернoе давление в разных тoчках местнoсти мoжет значительнo oтличаться oт давления на метеoстанции, в зависимoсти oт услoвий рельефа (при пoдъёме на 10 м давление пoнижается примернo на 1 мм рт.ст.).